When you browse on this site, cookies collect data to enhance your experience and personalize the content and advertising you see.
Visit our Privacy Policy to learn more. By continuing to use the site, you agree to this use of cookies and data.
  • In Deutschland
  • Länderverzeichnis
  • Für 7 Tage
  • Wassertemperatur
  • Wetterkarte
  • Widgets
  • user-avatar
    Anmelden

    Stündliche Wetter Etschmiadsin

    Heute, 17 September, Dienstag

    Zeit Temperatur Niederschläge Wind Luftdruck Luftfeuchtigkeit
    00:00 +22°C° 0 mm 1 m/S 686 mmHg 53%
    01:00 +22°C° 0 mm 1 m/S 686 mmHg 53%
    02:00 +21°C° 0 mm 1 m/S 686 mmHg 54%
    03:00 +20°C° 0 mm 1 m/S 686 mmHg 53%
    04:00 +20°C° 0 mm 1 m/S 686 mmHg 53%
    05:00 +20°C° 0 mm 1 m/S 686 mmHg 54%
    06:00 +20°C° 0 mm 1 m/S 686 mmHg 54%
    07:00 +22°C° 0 mm 1 m/S 686 mmHg 48%
    08:00 +24°C° 0 mm 1 m/S 686 mmHg 42%
    09:00 +27°C° 0 mm 1 m/S 687 mmHg 35%
    10:00 +28°C° 0 mm 2 m/S 687 mmHg 32%
    11:00 +29°C° 0 mm 2 m/S 687 mmHg 29%
    12:00 +30°C° 0 mm 2 m/S 686 mmHg 25%
    13:00 +31°C° 0 mm 3 m/S 686 mmHg 24%
    14:00 +31°C° 0 mm 3 m/S 685 mmHg 22%
    15:00 +33°C° 0 mm 4 m/S 686 mmHg 21%
    16:00 +30°C° 0 mm 4 m/S 686 mmHg 23%
    17:00 +29°C° 0 mm 3 m/S 686 mmHg 26%
    18:00 +28°C° 0 mm 3 m/S 686 mmHg 29%
    19:00 +27°C° 0 mm 3 m/S 686 mmHg 31%
    20:00 +26°C° 0 mm 3 m/S 687 mmHg 32%
    21:00 +24°C° 0 mm 3 m/S 687 mmHg 34%
    22:00 +24°C° 0 mm 3 m/S 687 mmHg 37%
    23:00 +23°C° 0 mm 2 m/S 687 mmHg 40%

    Morgen, 18 September, Mittwoch

    Zeit Temperatur Niederschläge Wind Luftdruck Luftfeuchtigkeit
    00:00 +21°C° 0 mm 2 m/S 687 mmHg 43%
    01:00 +20°C° 0 mm 2 m/S 687 mmHg 45%
    02:00 +20°C° 0 mm 2 m/S 687 mmHg 46%
    03:00 +19°C° 0 mm 2 m/S 687 mmHg 47%
    04:00 +19°C° 0 mm 2 m/S 687 mmHg 48%
    05:00 +18°C° 0 mm 2 m/S 687 mmHg 49%
    06:00 +18°C° 0 mm 2 m/S 688 mmHg 51%
    07:00 +20°C° 0 mm 2 m/S 688 mmHg 45%
    08:00 +23°C° 0 mm 2 m/S 689 mmHg 40%
    09:00 +25°C° 0 mm 2 m/S 689 mmHg 35%
    10:00 +27°C° 0 mm 2 m/S 689 mmHg 32%
    11:00 +28°C° 0 mm 2 m/S 690 mmHg 29%
    12:00 +29°C° 0 mm 1 m/S 690 mmHg 26%
    13:00 +30°C° 0 mm 1 m/S 689 mmHg 24%
    14:00 +30°C° 0 mm 1 m/S 689 mmHg 22%
    15:00 +31°C° 0 mm 1 m/S 689 mmHg 21%
    16:00 +29°C° 0 mm 1 m/S 689 mmHg 24%
    17:00 +27°C° 0 mm 1 m/S 688 mmHg 27%
    18:00 +26°C° 0 mm 1 m/S 688 mmHg 30%
    19:00 +25°C° 0 mm 1 m/S 688 mmHg 31%
    20:00 +24°C° 0 mm 2 m/S 688 mmHg 31%
    21:00 +24°C° 0 mm 2 m/S 689 mmHg 31%
    22:00 +23°C° 0 mm 2 m/S 689 mmHg 32%
    23:00 +22°C° 0 mm 1 m/S 688 mmHg 33%

    übermorgen, 19 September, Donnerstag

    Zeit Temperatur Niederschläge Wind Luftdruck Luftfeuchtigkeit
    00:00 +22°C° 0 mm 1 m/S 688 mmHg 34%
    01:00 +21°C° 0 mm 1 m/S 688 mmHg 35%
    02:00 +21°C° 0 mm 1 m/S 688 mmHg 37%
    03:00 +20°C° 0 mm 1 m/S 688 mmHg 38%
    04:00 +20°C° 0 mm 1 m/S 688 mmHg 39%
    05:00 +20°C° 0 mm 1 m/S 688 mmHg 40%
    06:00 +19°C° 0 mm 1 m/S 687 mmHg 42%
    07:00 +22°C° 0 mm 1 m/S 688 mmHg 37%
    08:00 +24°C° 0 mm 1 m/S 688 mmHg 32%
    09:00 +27°C° 0 mm 1 m/S 689 mmHg 27%
    10:00 +28°C° 0 mm 1 m/S 689 mmHg 25%
    11:00 +30°C° 0 mm 1 m/S 689 mmHg 23%
    12:00 +31°C° 0 mm 1 m/S 689 mmHg 21%
    13:00 +31°C° 0 mm 1 m/S 688 mmHg 19%
    14:00 +32°C° 0 mm 1 m/S 688 mmHg 18%
    15:00 +33°C° 0 mm 1 m/S 688 mmHg 16%
    16:00 +31°C° 0 mm 1 m/S 688 mmHg 19%
    17:00 +29°C° 0 mm 1 m/S 687 mmHg 22%
    18:00 +27°C° 0 mm 1 m/S 687 mmHg 25%
    19:00 +26°C° 0 mm 2 m/S 687 mmHg 26%
    20:00 +25°C° 0 mm 2 m/S 687 mmHg 27%
    21:00 +25°C° 0 mm 3 m/S 688 mmHg 28%
    22:00 +24°C° 0 mm 2 m/S 687 mmHg 30%
    23:00 +23°C° 0 mm 2 m/S 687 mmHg 33%

    20 September, Freitag

    Zeit Temperatur Niederschläge Wind Luftdruck Luftfeuchtigkeit
    00:00 +21°C° 0 mm 2 m/S 687 mmHg 36%
    01:00 +20°C° 0 mm 2 m/S 687 mmHg 38%
    02:00 +20°C° 0 mm 2 m/S 687 mmHg 40%
    03:00 +20°C° 0 mm 1 m/S 686 mmHg 42%
    04:00 +20°C° 0 mm 1 m/S 686 mmHg 43%
    05:00 +19°C° 0 mm 1 m/S 686 mmHg 45%
    06:00 +19°C° 0 mm 1 m/S 686 mmHg 46%
    07:00 +21°C° 0 mm 1 m/S 686 mmHg 40%
    08:00 +24°C° 0 mm 1 m/S 686 mmHg 34%
    09:00 +27°C° 0 mm 1 m/S 687 mmHg 28%
    10:00 +28°C° 0 mm 2 m/S 687 mmHg 25%
    11:00 +30°C° 0 mm 2 m/S 686 mmHg 22%
    12:00 +31°C° 0 mm 3 m/S 686 mmHg 19%
    13:00 +33°C° 0 mm 3 m/S 686 mmHg 18%
    14:00 +32°C° 0 mm 2 m/S 685 mmHg 16%
    15:00 +34°C° 0 mm 2 m/S 685 mmHg 14%
    16:00 +31°C° 0 mm 2 m/S 684 mmHg 16%
    17:00 +30°C° 0 mm 2 m/S 684 mmHg 19%
    18:00 +28°C° 0 mm 2 m/S 683 mmHg 21%
    19:00 +27°C° 0 mm 2 m/S 684 mmHg 22%
    20:00 +26°C° 0 mm 2 m/S 684 mmHg 22%
    21:00 +26°C° 0 mm 1 m/S 684 mmHg 23%
    22:00 +25°C° 0 mm 2 m/S 684 mmHg 28%
    23:00 +24°C° 0 mm 3 m/S 684 mmHg 33%

    21 September, Samstag

    Zeit Temperatur Niederschläge Wind Luftdruck Luftfeuchtigkeit
    00:00 +22°C° 0 mm 3 m/S 683 mmHg 38%
    01:00 +21°C° 0 mm 3 m/S 683 mmHg 42%
    02:00 +20°C° 0 mm 3 m/S 683 mmHg 46%
    03:00 +19°C° 0 mm 3 m/S 682 mmHg 50%
    04:00 +19°C° 0 mm 3 m/S 682 mmHg 52%
    05:00 +18°C° 0 mm 3 m/S 682 mmHg 54%
    06:00 +18°C° 0 mm 3 m/S 682 mmHg 57%
    07:00 +19°C° 0 mm 3 m/S 682 mmHg 51%
    08:00 +21°C° 0 mm 3 m/S 683 mmHg 45%
    09:00 +24°C° 0 mm 3 m/S 683 mmHg 39%
    10:00 +26°C° 0 mm 3 m/S 683 mmHg 34%
    11:00 +27°C° 0 mm 3 m/S 683 mmHg 30%
    12:00 +29°C° 0 mm 3 m/S 682 mmHg 25%
    13:00 +29°C° 0 mm 3 m/S 682 mmHg 23%
    14:00 +30°C° 0 mm 3 m/S 682 mmHg 21%
    15:00 +31°C° 0 mm 3 m/S 682 mmHg 19%
    16:00 +29°C° 0 mm 4 m/S 682 mmHg 23%
    17:00 +27°C° 0 mm 4 m/S 682 mmHg 27%
    18:00 +25°C° 0 mm 4 m/S 682 mmHg 30%
    19:00 +22°C° 0 mm 5 m/S 682 mmHg 36%
    20:00 +21°C° 0 mm 5 m/S 683 mmHg 42%
    21:00 +19°C° 0 mm 5 m/S 684 mmHg 47%
    22:00 +17°C° 0 mm 5 m/S 684 mmHg 46%
    23:00 +17°C° 0 mm 5 m/S 684 mmHg 45%

    22 September, Sonntag

    Zeit Temperatur Niederschläge Wind Luftdruck Luftfeuchtigkeit
    00:00 +16°C° 0 mm 5 m/S 684 mmHg 44%
    01:00 +15°C° 0 mm 5 m/S 685 mmHg 44%
    02:00 +14°C° 0 mm 5 m/S 685 mmHg 44%
    03:00 +13°C° 0 mm 6 m/S 686 mmHg 44%
    04:00 +13°C° 0 mm 5 m/S 686 mmHg 42%
    05:00 +12°C° 0 mm 5 m/S 687 mmHg 41%
    06:00 +12°C° 0 mm 4 m/S 687 mmHg 39%
    07:00 +13°C° 0 mm 4 m/S 688 mmHg 35%
    08:00 +15°C° 0 mm 4 m/S 689 mmHg 31%
    09:00 +17°C° 0 mm 4 m/S 689 mmHg 26%
    10:00 +18°C° 0 mm 4 m/S 690 mmHg 24%
    11:00 +20°C° 0 mm 4 m/S 690 mmHg 22%
    12:00 +21°C° 0 mm 4 m/S 690 mmHg 20%
    13:00 +21°C° 0 mm 3 m/S 690 mmHg 19%
    14:00 +22°C° 0 mm 3 m/S 689 mmHg 18%
    15:00 +23°C° 0 mm 2 m/S 689 mmHg 17%
    16:00 +21°C° 0 mm 2 m/S 689 mmHg 20%
    17:00 +19°C° 0 mm 2 m/S 689 mmHg 23%
    18:00 +18°C° 0 mm 1 m/S 689 mmHg 26%
    19:00 +17°C° 0 mm 2 m/S 689 mmHg 29%
    20:00 +16°C° 0 mm 2 m/S 690 mmHg 33%
    21:00 +14°C° 0 mm 3 m/S 690 mmHg 36%
    22:00 +13°C° 0 mm 3 m/S 690 mmHg 38%
    23:00 +13°C° 0 mm 2 m/S 690 mmHg 40%
    Mehr zeigen